Home > Weather > Halden > Past weeks

Flag for Norway Past Weather in Halden, Norway — Yesterday and Last 2 Weeks

Now
60 °F

Cool.


Feels Like: 60 °F
Forecast: 49 / 66 °F
Wind: 13 mph from Southwest

Location: Stromtangen Fyr

Current Time: Jun 30, 2016 at 9:30:50 PM

Latest Report: Jun 30, 2016 at 8:00 PM


Visibility: N/A

Pressure: 29.73 "Hg

Humidity: 78%

Dew Point: 54 °F

Location of HaldenLocation

Past Weather in Halden — Graph

°F

Halden Temperature Yesterday

Maximum temperature yesterday: 65 °F (at 4:00 PM)
Minimum temperature yesterday: 59 °F (at 5:00 AM)
Average temperature yesterday: 61 °F

High & Low Weather Summary for the Past Weeks

 TemperatureHumidityPressure
High71 °F (Jun 16, 4:00 PM)99% (Jun 24, 2:00 AM)30.19 "Hg (Jun 24, 2:00 AM)
Low53 °F (Jun 19, 12:00 PM)45% (Jun 16, 3:00 PM)29.54 "Hg (Jun 17, 11:00 PM)
Average61 °F84%29.83 "Hg
* Reported Jun 15 8:00 PM — Jun 30 8:00 PM, Halden, Weather by CustomWeather, © 2016

Note: Actual official high and low records may vary slightly from our data, if they occured in-between our weather recording intervals... More about our weather records

Advertising

Halden Weather History for the Previous 24 Hours

Scroll right to see more
 ConditionsComfort  
Time TempWeatherWind HumidityBarometerVisibility
8:00 PM
Thu, Jun 30
60 °FCool.13 mph78%29.73 "HgN/A
7:00 PM61 °FCool.14 mph76%29.72 "HgN/A
6:00 PM61 °FCool.13 mph78%29.72 "HgN/A
5:00 PM61 °FCool.12 mph81%29.72 "HgN/A
4:00 PM61 °FCool.12 mph79%29.71 "HgN/A
3:00 PM60 °FCool.10 mph87%29.70 "HgN/A
2:00 PM61 °FCool.13 mph89%29.69 "HgN/A
1:00 PM60 °FCool.14 mph93%29.69 "HgN/A
12:00 PM59 °FCool.15 mph95%29.69 "HgN/A
11:00 AM58 °FCool.14 mph92%29.69 "HgN/A
10:00 AM58 °FCool.15 mph87%29.69 "HgN/A
9:00 AM56 °FCool.12 mph89%29.71 "HgN/A
8:00 AM56 °FCool.14 mph92%29.70 "HgN/A
7:00 AM60 °FCool.10 mph83%29.70 "HgN/A
6:00 AM60 °FCool.8 mph83%29.70 "HgN/A
5:00 AM60 °FCool.8 mph82%29.71 "HgN/A
4:00 AM60 °FCool.8 mph84%29.71 "HgN/A
3:00 AM60 °FCool.9 mph89%29.71 "HgN/A
2:00 AM59 °FCool.8 mph89%29.71 "HgN/A
1:00 AM59 °FCool.8 mph88%29.73 "HgN/A
12:00 AM60 °FCool.7 mph85%29.74 "HgN/A
11:00 PM
Wed, Jun 29
60 °FCool.5 mph95%29.75 "HgN/A
10:00 PM60 °FCool.3 mph89%29.76 "HgN/A
9:00 PM60 °FCool.3 mph91%29.76 "HgN/A
Weather by CustomWeather, © 2016

See weather overviewHow to use our weather pages